| time (UTC) | temp C | wind direction | speed KPH | gust KPH | rain 1hr cm | rain 24hr cm | rain mn cm | humidity % | barometer mb |
| 20260906224902 | 30 | 47 | 4.8 | 8.0 | 0.00 | 0.05 | 0.00 | 39 | 1018.8 |
| 20260906223830 | 30 | 341 | 3.2 | 8.0 | 0.00 | 0.05 | 0.00 | 38 | 1018.8 |
| 20260906222822 | 29 | 2 | 6.4 | 8.0 | 0.00 | 0.05 | 0.00 | 38 | 1019.0 |
| 20260906221831 | 30 | 31 | 4.8 | 6.4 | 0.00 | 0.05 | 0.00 | 39 | 1019.1 |
| 20260906220831 | 30 | 120 | 6.4 | 8.0 | 0.00 | 0.05 | 0.00 | 38 | 1019.2 |
| 20260906215832 | 30 | 140 | 3.2 | 6.4 | 0.00 | 0.05 | 0.00 | 37 | 1019.3 |
| 20260906214842 | 29 | 102 | 3.2 | 4.8 | 0.00 | 0.05 | 0.00 | 39 | 1019.5 |
| 20260906213843 | 29 | 107 | 4.8 | 6.4 | 0.00 | 0.05 | 0.00 | 36 | 1019.5 |
| 20260906212823 | 29 | 28 | 8.0 | 11.3 | 0.00 | 0.05 | 0.00 | 35 | 1019.6 |
| 20260906211817 | 29 | 137 | 1.6 | 4.8 | 0.00 | 0.05 | 0.00 | 37 | 1019.7 |
| 20260906210823 | 28 | 27 | 3.2 | 4.8 | 0.00 | 0.05 | 0.00 | 38 | 1020.0 |
| 20260906205823 | 28 | 22 | 8.0 | 11.3 | 0.00 | 0.05 | 0.00 | 39 | 1020.1 |
| 20260906204854 | 28 | 27 | 6.4 | 11.3 | 0.00 | 0.05 | 0.00 | 39 | 1020.2 |
| 20260906203823 | 28 | 51 | 3.2 | 4.8 | 0.00 | 0.05 | 0.00 | 40 | 1020.3 |
| 20260906202818 | 28 | 66 | 4.8 | 8.0 | 0.00 | 0.05 | 0.00 | 40 | 1020.4 |
| 20260906201818 | 28 | 128 | 6.4 | 14.5 | 0.00 | 0.05 | 0.00 | 40 | 1020.5 |
| 20260906200838 | 28 | 35 | 3.2 | 8.0 | 0.00 | 0.05 | 0.00 | 39 | 1020.5 |
| 20260906195818 | 28 | 84 | 3.2 | 6.4 | 0.00 | 0.05 | 0.00 | 38 | 1020.5 |
| 20260906194819 | 28 | 109 | 6.4 | 12.9 | 0.00 | 0.05 | 0.00 | 39 | 1020.6 |
| 20260906193818 | 27 | 44 | 3.2 | 6.4 | 0.00 | 0.05 | 0.00 | 41 | 1020.7 |
| 20260906192818 | 27 | 78 | 8.0 | 9.7 | 0.00 | 0.05 | 0.00 | 40 | 1020.7 |
| 20260906191839 | 27 | 14 | 9.7 | 14.5 | 0.00 | 0.05 | 0.00 | 39 | 1020.9 |
| 20260906190819 | 27 | 118 | 6.4 | 9.7 | 0.00 | 0.05 | 0.00 | 41 | 1021.0 |
| 20260906185819 | 27 | 100 | 4.8 | 11.3 | 0.00 | 0.05 | 0.00 | 42 | 1021.2 |
| 20260906184820 | 27 | 60 | 3.2 | 6.4 | 0.00 | 0.05 | 0.00 | 42 | 1021.4 |
| 20260906183819 | 26 | 210 | 4.8 | 9.7 | 0.00 | 0.05 | 0.00 | 42 | 1021.6 |
| 20260906182820 | 26 | 32 | 6.4 | 8.0 | 0.00 | 0.05 | 0.00 | 43 | 1021.7 |
| 20260906181820 | 26 | 118 | 4.8 | 8.0 | 0.00 | 0.05 | 0.00 | 40 | 1021.9 |
| 20260906180821 | 26 | 14 | 8.0 | 11.3 | 0.00 | 0.05 | 0.00 | 41 | 1022.0 |
| 20260906175820 | 26 | 35 | 8.0 | 9.7 | 0.00 | 0.05 | 0.00 | 40 | 1022.1 |
| 20260906174840 | 25 | 19 | 4.8 | 9.7 | 0.00 | 0.05 | 0.00 | 45 | 1022.3 |
| 20260906173841 | 25 | 24 | 4.8 | 8.0 | 0.00 | 0.05 | 0.00 | 45 | 1022.6 |
| 20260906172820 | 25 | 16 | 4.8 | 8.0 | 0.00 | 0.05 | 0.00 | 45 | 1022.8 |
| 20260906171821 | 24 | 125 | 3.2 | 6.4 | 0.00 | 0.05 | 0.00 | 47 | 1022.9 |
| 20260906170822 | 24 | 36 | 4.8 | 4.8 | 0.00 | 0.05 | 0.00 | 49 | 1022.9 |
| 20260906165821 | 23 | 210 | 3.2 | 4.8 | 0.00 | 0.05 | 0.00 | 51 | 1023.0 |
| 20260906164822 | 23 | 158 | 6.4 | 8.0 | 0.00 | 0.05 | 0.00 | 53 | 1023.1 |
| 20260906163821 | 23 | 123 | 4.8 | 6.4 | 0.00 | 0.05 | 0.00 | 52 | 1023.1 |
| 20260906162821 | 23 | 26 | 9.7 | 9.7 | 0.00 | 0.05 | 0.00 | 54 | 1023.1 |
| 20260906161821 | 23 | 195 | 6.4 | 8.0 | 0.00 | 0.05 | 0.00 | 57 | 1023.1 |
| 20260906160822 | 23 | 5 | 4.8 | 6.4 | 0.00 | 0.05 | 0.00 | 57 | 1023.0 |
| 20260906155822 | 22 | 55 | 3.2 | 4.8 | 0.00 | 0.05 | 0.00 | 57 | 1023.1 |
| 20260906154822 | 22 | 7 | 3.2 | 8.0 | 0.00 | 0.05 | 0.00 | 56 | 1023.0 |
| 20260906153822 | 22 | 116 | 1.6 | 3.2 | 0.00 | 0.05 | 0.00 | 56 | 1023.0 |
| 20260906152822 | 21 | 4 | 4.8 | 6.4 | 0.00 | 0.05 | 0.00 | 57 | 1022.9 |
| 20260906151822 | 21 | 204 | 3.2 | 4.8 | 0.00 | 0.05 | 0.00 | 58 | 1023.0 |
| 20260906150823 | 21 | 248 | 3.2 | 6.4 | 0.00 | 0.05 | 0.00 | 59 | 1023.2 |
| 20260906145823 | 20 | 168 | 3.2 | 3.2 | 0.00 | 0.05 | 0.00 | 62 | 1023.2 |
| 20260906144823 | 20 | 301 | 3.2 | 3.2 | 0.00 | 0.05 | 0.00 | 65 | 1023.3 |
| 20260906143823 | 19 | 223 | 3.2 | 4.8 | 0.00 | 0.05 | 0.00 | 68 | 1023.3 |
| 20260906142824 | 19 | 317 | 3.2 | 3.2 | 0.00 | 0.05 | 0.00 | 71 | 1023.2 |
| 20260906141829 | 19 | 24 | 4.8 | 6.4 | 0.00 | 0.05 | 0.00 | 73 | 1023.2 |
| 20260906140824 | 18 | 352 | 3.2 | 3.2 | 0.00 | 0.05 | 0.00 | 74 | 1023.1 |
| 20260906135844 | 18 | 33 | 4.8 | 4.8 | 0.00 | 0.05 | 0.00 | 75 | 1023.2 |
| 20260906134824 | 17 | 24 | 3.2 | 3.2 | 0.00 | 0.05 | 0.00 | 75 | 1023.1 |
| 20260906133824 | 16 | 108 | 1.6 | 1.6 | 0.00 | 0.05 | 0.00 | 76 | 1023.1 |
| 20260906132825 | 16 | 317 | 1.6 | 3.2 | 0.00 | 0.05 | 0.00 | 76 | 1023.0 |
| 20260906131824 | 15 | 260 | 1.6 | 1.6 | 0.00 | 0.05 | 0.00 | 77 | 1023.0 |
| 20260906130825 | 15 | 269 | 3.2 | 3.2 | 0.00 | 0.05 | 0.00 | 76 | 1023.0 |
| 20260906125825 | 15 | 276 | 1.6 | 1.6 | 0.00 | 0.05 | 0.00 | 79 | 1023.0 |
| 20260906124825 | 15 | 0.0 | 0.0 | 0.00 | 0.05 | 0.00 | 80 | 1022.9 | |
| 20260906123825 | 15 | 311 | 1.6 | 1.6 | 0.00 | 0.05 | 0.00 | 79 | 1022.8 |
| 20260906122826 | 15 | 0.0 | 0.0 | 0.00 | 0.05 | 0.00 | 78 | 1022.8 | |
| 20260906121825 | 15 | 238 | 0.0 | 1.6 | 0.00 | 0.05 | 0.00 | 78 | 1022.8 |
| 20260906120826 | 15 | 289 | 3.2 | 3.2 | 0.00 | 0.05 | 0.00 | 78 | 1022.8 |
| 20260906115826 | 15 | 314 | 1.6 | 1.6 | 0.00 | 0.05 | 0.00 | 78 | 1022.8 |
| 20260906114826 | 15 | 344 | 1.6 | 3.2 | 0.00 | 0.05 | 0.00 | 78 | 1022.9 |
| 20260906113847 | 15 | 358 | 3.2 | 4.8 | 0.00 | 0.05 | 0.00 | 77 | 1022.6 |
| 20260906112827 | 15 | 274 | 1.6 | 1.6 | 0.00 | 0.05 | 0.00 | 77 | 1022.7 |
| 20260906111827 | 15 | 308 | 1.6 | 1.6 | 0.00 | 0.05 | 0.00 | 76 | 1022.7 |
| 20260906110827 | 16 | 340 | 1.6 | 3.2 | 0.00 | 0.05 | 0.00 | 74 | 1022.7 |
| 20260906105827 | 16 | 331 | 1.6 | 1.6 | 0.00 | 0.05 | 0.00 | 70 | 1022.7 |
| 20260906104828 | 16 | 342 | 1.6 | 3.2 | 0.00 | 0.05 | 0.00 | 69 | 1022.5 |
| 20260906103848 | 16 | 1 | 3.2 | 3.2 | 0.00 | 0.05 | 0.00 | 67 | 1022.5 |
| 20260906102828 | 16 | 277 | 1.6 | 1.6 | 0.00 | 0.05 | 0.00 | 67 | 1022.5 |
| 20260906101828 | 16 | 280 | 1.6 | 3.2 | 0.00 | 0.05 | 0.00 | 67 | 1022.7 |
| 20260906100822 | 16 | 343 | 3.2 | 4.8 | 0.00 | 0.05 | 0.00 | 65 | 1022.5 |
| 20260906095848 | 16 | 3 | 3.2 | 3.2 | 0.00 | 0.05 | 0.00 | 67 | 1022.7 |
| 20260906094849 | 17 | 323 | 1.6 | 3.2 | 0.00 | 0.05 | 0.00 | 65 | 1022.6 |
| 20260906093828 | 17 | 24 | 1.6 | 3.2 | 0.00 | 0.05 | 0.00 | 62 | 1022.6 |
| 20260906092828 | 17 | 0.0 | 0.0 | 0.00 | 0.05 | 0.00 | 60 | 1022.5 | |
| 20260906091829 | 17 | 226 | 1.6 | 1.6 | 0.00 | 0.05 | 0.00 | 61 | 1022.5 |
| 20260906090829 | 17 | 0.0 | 0.0 | 0.00 | 0.05 | 0.00 | 59 | 1022.3 | |
| 20260906085836 | 18 | 223 | 1.6 | 1.6 | 0.00 | 0.05 | 0.00 | 57 | 1022.4 |
| 20260906084836 | 19 | 272 | 3.2 | 3.2 | 0.00 | 0.05 | 0.00 | 52 | 1022.2 |
| 20260906083837 | 19 | 329 | 3.2 | 4.8 | 0.00 | 0.05 | 0.00 | 53 | 1022.1 |
| 20260906082837 | 19 | 358 | 4.8 | 4.8 | 0.00 | 0.05 | 0.00 | 52 | 1021.9 |
| 20260906081837 | 19 | 314 | 1.6 | 3.2 | 0.00 | 0.05 | 0.00 | 53 | 1021.9 |
| 20260906080858 | 20 | 313 | 3.2 | 4.8 | 0.00 | 0.05 | 0.00 | 53 | 1021.8 |
| 20260906075838 | 19 | 303 | 4.8 | 6.4 | 0.00 | 0.05 | 0.00 | 52 | 1022.0 |
| 20260906074838 | 18 | 339 | 3.2 | 4.8 | 0.00 | 0.05 | 0.00 | 54 | 1022.1 |
| 20260906073857 | 18 | 0.0 | 0.0 | 0.00 | 0.05 | 0.00 | 57 | 1022.1 | |
| 20260906072858 | 19 | 326 | 0.0 | 0.0 | 0.00 | 0.05 | 0.00 | 55 | 1022.1 |
| 20260906071816 | 19 | 281 | 1.6 | 1.6 | 0.00 | 0.05 | 0.00 | 55 | 1022.1 |
| 20260906070816 | 19 | 295 | 3.2 | 3.2 | 0.00 | 0.05 | 0.00 | 56 | 1022.2 |
| 20260906065836 | 20 | 307 | 1.6 | 1.6 | 0.00 | 0.05 | 0.00 | 53 | 1022.1 |
| 20260906064838 | 20 | 320 | 1.6 | 3.2 | 0.00 | 0.05 | 0.00 | 57 | 1022.3 |
| 20260906063840 | 20 | 240 | 1.6 | 1.6 | 0.00 | 0.05 | 0.00 | 58 | 1022.3 |
| 20260906062831 | 20 | 328 | 3.2 | 3.2 | 0.00 | 0.05 | 0.00 | 60 | 1022.4 |
| 20260906061853 | 20 | 265 | 3.2 | 3.2 | 0.03 | 0.05 | 0.00 | 59 | 1022.4 |
| 20260906060832 | 20 | 3 | 3.2 | 4.8 | 0.05 | 0.05 | 0.00 | 58 | 1022.3 |
| 20260906055817 | 20 | 186 | 4.8 | 6.4 | 0.05 | 0.05 | 0.05 | 59 | 1022.3 |
| 20260906054817 | 20 | 279 | 1.6 | 3.2 | 0.05 | 0.05 | 0.05 | 58 | 1022.3 |
| 20260906053837 | 21 | 223 | 3.2 | 4.8 | 0.05 | 0.05 | 0.05 | 59 | 1022.2 |
| 20260906052820 | 21 | 15 | 9.7 | 12.9 | 0.05 | 0.05 | 0.05 | 57 | 1022.2 |
| 20260906051833 | 22 | 316 | 3.2 | 3.2 | 0.03 | 0.03 | 0.03 | 51 | 1023.1 |
| 20260906050853 | 23 | 152 | 4.8 | 4.8 | 0.00 | 0.00 | 0.00 | 43 | 1023.2 |
| 20260906045818 | 23 | 94 | 3.2 | 4.8 | 0.00 | 0.00 | 0.00 | 43 | 1023.1 |
| 20260906044819 | 23 | 165 | 3.2 | 3.2 | 0.00 | 0.00 | 0.00 | 40 | 1022.9 |
| 20260906043819 | 24 | 315 | 1.6 | 1.6 | 0.00 | 0.00 | 0.00 | 39 | 1022.2 |
| 20260906042822 | 25 | 17 | 8.0 | 9.7 | 0.00 | 0.00 | 0.00 | 37 | 1022.0 |
| 20260906041835 | 25 | 341 | 8.0 | 11.3 | 0.00 | 0.00 | 0.00 | 38 | 1021.9 |
| 20260906040822 | 25 | 253 | 8.0 | 11.3 | 0.00 | 0.00 | 0.00 | 38 | 1021.7 |
| 20260906035819 | 25 | 283 | 6.4 | 11.3 | 0.00 | 0.00 | 0.00 | 37 | 1021.7 |
| 20260906034841 | 24 | 198 | 6.4 | 9.7 | 0.00 | 0.00 | 0.00 | 36 | 1021.8 |
| 20260906033819 | 23 | 322 | 4.8 | 6.4 | 0.00 | 0.00 | 0.00 | 35 | 1021.4 |
| 20260906032900 | 23 | 282 | 3.2 | 4.8 | 0.00 | 0.00 | 0.00 | 36 | 1021.3 |
| 20260906031820 | 23 | 305 | 1.6 | 1.6 | 0.00 | 0.00 | 0.00 | 36 | 1021.3 |
| 20260906030821 | 23 | 250 | 3.2 | 4.8 | 0.00 | 0.00 | 0.00 | 36 | 1021.3 |
| 20260906025829 | 24 | 292 | 3.2 | 8.0 | 0.00 | 0.00 | 0.00 | 36 | 1021.0 |
| 20260906024833 | 24 | 292 | 4.8 | 4.8 | 0.00 | 0.00 | 0.00 | 36 | 1020.9 |
| 20260906023853 | 25 | 273 | 1.6 | 3.2 | 0.00 | 0.00 | 0.00 | 35 | 1020.7 |
| 20260906022832 | 25 | 287 | 3.2 | 4.8 | 0.00 | 0.00 | 0.00 | 35 | 1020.7 |
| 20260906021821 | 25 | 297 | 3.2 | 4.8 | 0.00 | 0.00 | 0.00 | 34 | 1020.6 |
| 20260906020819 | 26 | 294 | 3.2 | 4.8 | 0.00 | 0.00 | 0.00 | 33 | 1020.5 |
| 20260906015818 | 26 | 306 | 4.8 | 4.8 | 0.00 | 0.00 | 0.00 | 32 | 1020.6 |
| 20260906014838 | 26 | 309 | 4.8 | 9.7 | 0.00 | 0.00 | 0.00 | 33 | 1020.5 |
| 20260906013844 | 26 | 264 | 1.6 | 4.8 | 0.00 | 0.00 | 0.00 | 32 | 1020.5 |
| 20260906012818 | 26 | 319 | 1.6 | 3.2 | 0.00 | 0.00 | 0.00 | 33 | 1020.4 |
| 20260906011822 | 26 | 304 | 3.2 | 4.8 | 0.00 | 0.00 | 0.00 | 33 | 1020.4 |
| 20260906010822 | 26 | 334 | 3.2 | 6.4 | 0.00 | 0.00 | 0.00 | 33 | 1020.4 |
| 20260906005819 | 26 | 275 | 4.8 | 8.0 | 0.00 | 0.00 | 0.00 | 32 | 1020.5 |
| 20260906004822 | 27 | 305 | 3.2 | 8.0 | 0.00 | 0.00 | 0.00 | 32 | 1020.5 |
| 20260906003819 | 27 | 284 | 4.8 | 6.4 | 0.00 | 0.00 | 0.00 | 31 | 1020.4 |
| 20260906002819 | 27 | 288 | 4.8 | 9.7 | 0.00 | 0.00 | 0.00 | 31 | 1020.6 |
| 20260906001822 | 28 | 9 | 3.2 | 4.8 | 0.00 | 0.00 | 0.00 | 28 | 1020.5 |
| 20260906000822 | 28 | 15 | 3.2 | 4.8 | 0.00 | 0.00 | 0.00 | 28 | 1020.4 |
| 20260905235854 | 28 | 33 | 3.2 | 4.8 | 0.00 | 0.00 | 0.00 | 27 | 1020.3 |
| 20260905234828 | 28 | 15 | 4.8 | 6.4 | 0.00 | 0.00 | 0.00 | 27 | 1020.3 |
| 20260905233823 | 29 | 17 | 3.2 | 3.2 | 0.00 | 0.00 | 0.00 | 28 | 1020.3 |
| 20260905232855 | 30 | 40 | 3.2 | 4.8 | 0.00 | 0.00 | 0.00 | 28 | 1020.2 |
| 20260905231844 | 30 | 42 | 4.8 | 6.4 | 0.00 | 0.00 | 0.00 | 28 | 1020.2 |
| 20260905230823 | 30 | 23 | 6.4 | 11.3 | 0.00 | 0.00 | 0.00 | 27 | 1020.1 |
| 20260905225835 | 30 | 51 | 4.8 | 6.4 | 0.00 | 0.00 | 0.00 | 27 | 1020.0 |